"2009-03-25 00:00:00",740498,5.113,292.3,9.53,1.168,9.72,102.5068,5.697,7.068,23.58,0,110.1,13.4,6.47,254.3
"2009-03-25 00:00:30",740499,5.125,290.3,7.41,1.353,8.53,102.5068,5.697,6.995,23.48,0,110,13.4,6.47,252.3
"2009-03-25 00:01:00",740500,3.742,273.2,8.47,0.795,5.862,102.5025,5.687,6.849,23.33,0,110,13.4,6.46,235.2
"2009-03-25 00:01:30",740501,4.341,276.9,9.72,1.672,5.751,102.4901,5.655,6.745,23.12,0,110,13.4,6.43,238.9
"2009-03-25 00:02:00",740502,5.083,277.9,5.622,1.229,5.891,102.4845,5.64,6.727,23.16,0,110,13.4,6.41,239.9
"2009-03-25 00:02:30",740503,5.211,296.6,11.04,1.061,8.83,102.4749,5.616,6.905,23.34,0,110,13.41,6.39,258.6
"2009-03-25 00:03:00",740504,3.461,285.8,18.23,1.1,6.43,102.4729,5.611,6.819,23.3,0,110,13.41,6.38,247.8
"2009-03-25 00:03:30",740505,4.711,301.7,5.797,1.099,8.91,102.4729,5.611,6.888,23.45,0,110,13.41,6.38,263.7
"2009-03-25 00:04:00",740506,3.296,297.8,6.882,1.149,6.933,102.4729,5.611,6.894,23.5,0,110,13.41,6.38,259.8
"2009-03-25 00:04:30",740507,3.692,287.8,10.07,0.839,5.701,102.4715,5.607,6.67,23.35,0,110,13.41,6.38,249.8
"2009-03-25 00:05:00",740508,4.159,284.3,1.934,0.79,4.657,102.4641,5.589,6.608,23.23,0,110,13.44,6.36,246.3
"2009-03-25 00:05:30",740509,6.068,292.3,6.598,1.357,7.319,102.4497,5.552,6.748,23.32,0,110,13.41,6.32,254.3
"2009-03-25 00:06:00",740510,6.33,294.3,7.458,1.192,8.63,102.4427,5.534,6.805,23.4,0,110,13.41,6.31,256.3
"2009-03-25 00:06:30",740511,6.731,297.3,7.157,0.904,9.74,102.4396,5.526,6.891,23.5,0,110,13.41,6.30,259.3
"2009-03-25 00:07:00",740512,7.062,294.5,4.049,1.014,9.43,102.439,5.524,6.833,23.47,0,110,13.41,6.30,256.5
"2009-03-25 00:07:30",740513,6.336,288.9,5.957,1.29,6.91,102.439,5.524,6.688,23.35,0,110,13.41,6.30,250.9
"2009-03-25 00:08:00",740514,5.914,286.2,7.479,1.088,7.051,102.439,5.524,6.677,23.36,0,110,13.41,6.30,248.2
"2009-03-25 00:08:30",740515,4.57,282.9,6.529,0.86,6.009,102.439,5.524,6.688,23.38,0,110,13.41,6.30,244.9
"2009-03-25 00:09:00",740516,6.417,295.9,5.811,1.145,8.95,102.439,5.524,6.72,23.43,0,110,13.41,6.30,257.9
"2009-03-25 00:09:30",740517,6.43,293,7.646,1.153,8.6,102.4393,5.525,6.771,23.44,0,110,13.41,6.30,255.0
"2009-03-25 00:10:00",740518,6.191,293.4,6.511,1.157,8.66,102.4399,5.527,6.793,23.42,0,110,13.41,6.30,255.4
"2009-03-25 00:10:30",740519,5.584,296.5,5.353,1.079,7.436,102.4385,5.523,6.705,23.3,0,110,13.41,6.29,258.5
"2009-03-25 00:11:00",740520,6.059,291.6,7.054,1.499,7.253,102.4371,5.52,6.702,23.29,0,110,13.41,6.29,253.6
"2009-03-25 00:11:30",740521,5.558,284.7,3.876,0.741,5.278,102.4346,5.513,6.649,23.23,0,110,13.41,6.28,246.7
"2009-03-25 00:12:00",740522,6.736,293.7,3.412,1.218,8.43,102.4222,5.482,6.714,23.28,0,110,13.41,6.25,255.7
"2009-03-25 00:12:30",740523,6.961,299.3,5.929,1.1,9.19,102.4167,5.467,6.803,23.42,0,110,13.41,6.24,261.3
"2009-03-25 00:13:00",740524,7.03,302.4,5.1,1.094,9.25,102.4211,5.478,6.828,23.46,0,110,13.41,6.25,264.4
"2009-03-25 00:13:30",740525,5.905,299.4,5.735,1.253,7.502,102.4234,5.484,6.708,23.28,0,110,13.41,6.26,261.4
"2009-03-25 00:14:00",740526,7.195,296.3,6.94,1.305,7.953,102.4294,5.5,6.65,23.29,0,110,13.41,6.27,258.3
"2009-03-25 00:14:30",740527,5.415,286.5,2.996,0.314,5.522,102.4312,5.504,6.629,23.28,0,110,13.41,6.28,248.5
"2009-03-25 00:15:00",740528,6.284,295.2,5.311,1.41,7.807,102.4352,5.515,6.7,23.35,0,110,13.41,6.29,257.2
"2009-03-25 00:15:30",740529,6.414,305.5,5.884,1.254,8.58,102.4384,5.523,6.729,23.56,0,110,13.42,6.29,267.5
"2009-03-25 00:16:00",740530,6.441,294.4,7.285,1.083,9.02,102.4336,5.511,6.78,23.76,0,110,13.42,6.28,256.4
"2009-03-25 00:16:30",740531,5.774,287.9,9.61,1.125,7.428,102.4317,5.506,6.562,23.45,0,110,13.42,6.28,249.9
"2009-03-25 00:17:00",740532,6.6,288.3,7.308,1.342,8.29,102.4212,5.479,6.715,23.64,0,110,13.42,6.25,250.3
"2009-03-25 00:17:30",740533,5.008,291.9,4.222,1.109,5.292,102.4077,5.444,6.555,23.59,0,110,13.42,6.22,253.9
"2009-03-25 00:18:00",740534,6.146,303.6,5.173,1.667,8.26,102.406,5.44,6.611,23.74,0,110,13.42,6.21,265.6
"2009-03-25 00:18:30",740535,6.809,295.1,5.09,1.394,8.17,102.406,5.44,6.678,23.92,0,110,13.42,6.21,257.1
"2009-03-25 00:19:00",740536,8.12,292.6,7.247,0.986,9.75,102.406,5.44,6.765,24.07,0,110,13.42,6.21,254.6
"2009-03-25 00:19:30",740537,5.844,284.7,7.601,1.209,6.953,102.406,5.44,6.579,23.94,0,110,13.42,6.21,246.7
"2009-03-25 00:20:00",740538,7.039,292.5,5.698,1.066,9.02,102.406,5.44,6.659,24.02,0,110,13.42,6.21,254.5
"2009-03-25 00:20:30",740539,6.119,284.1,6.29,1.092,5.921,102.4026,5.431,6.492,23.86,0,110,13.42,6.20,246.1
"2009-03-25 00:21:00",740540,7.774,296,6.84,1.276,8.75,102.3983,5.42,6.678,24.05,0,110,13.42,6.19,258.0
"2009-03-25 00:21:30",740541,7.818,295.3,6.961,1.259,8.43,102.3927,5.406,6.687,24.04,0,109.9,13.42,6.18,257.3
"2009-03-25 00:22:00",740542,8.27,297.9,7.066,0.942,9.38,102.3839,5.384,6.724,24.2,0,109.9,13.42,6.15,259.9
"2009-03-25 00:22:30",740543,6.349,295.4,7.841,1.274,7.67,102.3729,5.356,6.613,24.16,0,109.9,13.42,6.13,257.4
"2009-03-25 00:23:00",740544,6.346,287.4,6.904,1.298,8.25,102.3721,5.353,6.674,24.27,0,109.9,13.42,6.12,249.4
"2009-03-25 00:23:30",740545,7.047,283.8,7.73,1.27,7.021,102.3721,5.353,6.426,23.98,0,109.9,13.42,6.12,245.8
"2009-03-25 00:24:00",740546,7.152,278.3,6.046,1.121,6.339,102.3721,5.353,6.54,24.11,0,109.9,13.42,6.12,240.3
"2009-03-25 00:24:30",740547,8.32,299,7.35,1.205,8.98,102.3721,5.353,6.604,24.39,0,110,13.42,6.12,261.0
"2009-03-25 00:25:00",740548,9.75,297.6,5.425,0.801,9.98,102.3718,5.353,6.692,24.59,0,109.9,13.42,6.12,259.6
"2009-03-25 00:25:30",740549,9.96,298.6,5.793,0.794,9.29,102.363,5.33,6.607,24.64,0,109.9,13.42,6.10,260.6
"2009-03-25 00:26:00",740550,9.09,294,6.176,1.633,8.91,102.3492,5.295,6.609,24.72,0,109.9,13.42,6.07,256.0
"2009-03-25 00:26:30",740551,8.79,292,6.604,1.081,6.624,102.3434,5.28,6.436,24.55,0,109.9,13.42,6.05,254.0
"2009-03-25 00:27:00",740552,9.11,294.9,6.05,1.255,7.866,102.3434,5.28,6.628,24.7,0,109.8,13.42,6.05,256.9
"2009-03-25 00:27:30",740553,10.38,298.6,6.032,0.945,8.98,102.3474,5.29,6.616,24.63,0,109.9,13.42,6.06,260.6
"2009-03-25 00:28:00",740554,10.14,294.6,6.353,1.036,9.11,102.3471,5.29,6.594,24.66,0,109.9,13.42,6.06,256.6
"2009-03-25 00:28:30",740555,9.97,296.8,5.788,1.097,9.22,102.3532,5.305,6.581,24.67,0,109.9,13.42,6.08,258.8
"2009-03-25 00:29:00",740556,10.16,296.1,6.248,1.062,8.94,102.3578,5.317,6.554,24.6,0,109.9,13.42,6.09,258.1
"2009-03-25 00:29:30",740557,10.64,299,5.363,0.955,9.34,102.3565,5.314,6.553,24.5,0,109.9,13.42,6.08,261.0
"2009-03-25 00:30:00",740558,9.36,292.1,6.463,1.261,8.19,102.3473,5.29,6.616,24.51,0,109.9,13.42,6.06,254.1
"2009-03-25 00:30:30",740559,9.37,293.4,6.896,1.141,8.52,102.3476,5.291,6.505,24.37,0,109.9,13.42,6.06,255.4
"2009-03-25 00:31:00",740560,8.94,289,6.055,1.093,7.311,102.3363,5.262,6.476,24.4,0,109.9,13.43,6.03,251.0
"2009-03-25 00:31:30",740561,8.41,293,5.575,1.162,9.01,102.3361,5.261,6.524,24.46,0,109.9,13.43,6.03,255.0
"2009-03-25 00:32:00",740562,8.52,290.8,8.34,1.16,8.83,102.3352,5.259,6.532,24.44,0,109.9,13.43,6.03,252.8
"2009-03-25 00:32:30",740563,9.62,297.1,5.334,0.97,8.99,102.3384,5.267,6.529,24.38,0,109.9,13.43,6.04,259.1
"2009-03-25 00:33:00",740564,8.43,290.9,8.13,1.358,7.764,102.339,5.269,6.504,24.27,0,109.9,13.43,6.04,252.9
"2009-03-25 00:33:30",740565,6.994,288.9,6,0.999,6.347,102.3384,5.267,6.44,24.24,0,109.9,13.43,6.04,250.9
"2009-03-25 00:34:00",740566,7.834,297.7,5.754,1.149,8.75,102.3347,5.258,6.47,24.21,0,109.9,13.43,6.03,259.7
"2009-03-25 00:34:30",740567,8.58,293.5,4.999,1.234,8.59,102.3316,5.25,6.411,24.37,0,109.9,13.44,6.02,255.5
"2009-03-25 00:35:00",740568,9.67,294.9,6.336,1.231,8.98,102.3271,5.239,6.534,24.82,0,109.9,13.44,6.01,256.9
"2009-03-25 00:35:30",740569,10.2,295.4,5.55,1.104,9.35,102.3203,5.221,6.534,24.97,0,109.9,13.44,5.99,257.4
"2009-03-25 00:36:00",740570,10.28,298.5,4.935,0.943,9.1,102.3141,5.205,6.514,25.02,0,109.9,13.44,5.98,260.5
"2009-03-25 00:36:30",740571,9.06,294.1,5.916,1.075,6.194,102.3065,5.186,6.376,25.01,0,109.9,13.44,5.96,256.1
"2009-03-25 00:37:00",740572,9.75,298.6,6.669,1.419,8.48,102.3051,5.182,6.489,25.26,0,109.9,13.44,5.95,260.6
"2009-03-25 00:37:30",740573,9.84,296.7,6.831,1.096,8.97,102.3051,5.182,6.469,25.27,0,109.9,13.44,5.95,258.7
"2009-03-25 00:38:00",740574,9.77,297.6,5.938,0.864,9.66,102.3051,5.182,6.48,25.33,0,109.9,13.44,5.95,259.6
"2009-03-25 00:38:30",740575,9.87,297,5.02,1.044,9.45,102.3051,5.182,6.502,25.35,0,109.9,13.44,5.95,259.0
"2009-03-25 00:39:00",740576,10.27,298.6,4.95,0.688,9.56,102.3051,5.182,6.505,25.34,0,109.9,13.44,5.95,260.6
"2009-03-25 00:39:30",740577,9,290.8,9.07,1.653,7.164,102.3051,5.182,6.262,25.18,0,109.9,13.44,5.95,252.8
"2009-03-25 00:40:00",740578,8.07,288.4,8.05,1.289,6.659,102.3051,5.182,6.392,25.34,0,109.9,13.44,5.95,250.4
"2009-03-25 00:40:30",740579,8.73,292.4,6.892,1.311,7.222,102.3051,5.182,6.274,25.28,0,109.9,13.44,5.95,254.4
"2009-03-25 00:41:00",740580,8.95,300.6,5.818,1.234,8.77,102.3051,5.182,6.467,25.46,0,109.9,13.44,5.95,262.6
"2009-03-25 00:41:30",740581,8.92,300.8,6.382,0.925,9.41,102.3048,5.182,6.487,25.43,0,109.9,13.44,5.95,262.8
"2009-03-25 00:42:00",740582,8.85,296.1,6.368,1.056,8.55,102.3057,5.184,6.446,25.41,0,109.9,13.44,5.95,258.1
"2009-03-25 00:42:30",740583,8.21,292,5.522,0.83,6.783,102.3054,5.183,6.355,25.4,0,109.9,13.44,5.95,254.0
"2009-03-25 00:43:00",740584,10.19,295.3,7.706,1.218,8.01,102.3063,5.185,6.359,25.26,0,109.9,13.43,5.96,257.3
"2009-03-25 00:43:30",740585,10.06,296.1,6.151,1.123,8.96,102.3063,5.185,6.381,25.08,0,109.9,13.43,5.96,258.1
"2009-03-25 00:44:00",740586,9.95,299.7,6.347,1.145,9.69,102.3063,5.185,6.459,25.18,0,109.9,13.44,5.96,261.7
"2009-03-25 00:44:30",740587,8.97,299.1,6.299,1.048,9.49,102.3067,5.186,6.47,25.17,0,109.9,13.43,5.96,261.1
"2009-03-25 00:45:00",740588,9.88,297.2,5.526,0.833,9.49,102.3024,5.175,6.483,25.17,0,109.9,13.44,5.95,259.2
"2009-03-25 00:45:30",740589,9.78,298.4,5.56,1.007,8.34,102.3067,5.186,6.403,25.27,0,109.9,13.43,5.96,260.4
"2009-03-25 00:46:00",740590,9,296.9,6.431,1.411,7.231,102.3067,5.186,6.276,25.08,0,109.9,13.43,5.96,258.9
"2009-03-25 00:46:30",740591,8.23,296,6.937,1.019,6.212,102.3039,5.179,6.35,25.05,0,109.9,13.44,5.95,258.0
"2009-03-25 00:47:00",740592,8.87,305.7,6.02,1.166,8.91,102.3039,5.179,6.425,24.89,0,109.9,13.44,5.95,267.7
"2009-03-25 00:47:30",740593,8.68,303,6.254,1.095,9.55,102.3031,5.177,6.475,24.81,0,109.9,13.44,5.95,265.0
"2009-03-25 00:48:00",740594,8.16,302.3,5.133,1.152,8.82,102.3086,5.191,6.419,24.86,0,109.9,13.44,5.96,264.3
"2009-03-25 00:48:30",740595,7.175,296.3,8.44,1.295,8.05,102.3078,5.189,6.377,24.77,0,109.9,13.44,5.96,258.3
"2009-03-25 00:49:00",740596,6.509,293.4,9.11,1.088,6.989,102.3121,5.2,6.332,24.66,0,109.9,13.44,5.97,255.4
"2009-03-25 00:49:30",740597,6.008,296.9,4.915,1.066,6.178,102.3121,5.2,6.248,24.74,0,109.9,13.44,5.97,258.9
"2009-03-25 00:50:00",740598,7.412,298.1,6.879,1.462,7.451,102.313,5.202,6.428,24.88,0,109.9,13.44,5.97,260.1
"2009-03-25 00:50:30",740599,8.27,302.9,5.977,0.936,9.58,102.3142,5.206,6.43,24.75,0,109.9,13.45,5.98,264.9
"2009-03-25 00:51:00",740600,7.017,303,7.17,1.089,8.72,102.3134,5.203,6.438,24.84,0,109.9,13.45,5.97,265.0
"2009-03-25 00:51:30",740601,7.377,300.6,8.26,1.174,8.15,102.3174,5.214,6.384,24.7,0,109.9,13.45,5.98,262.6
"2009-03-25 00:52:00",740602,7.828,295.1,6.197,1.211,7.84,102.3185,5.217,6.336,24.69,0,109.9,13.45,5.99,257.1
"2009-03-25 00:52:30",740603,7.471,294.9,6.563,1.142,7.047,102.3197,5.22,6.349,25.28,0,109.9,13.45,5.99,256.9
"2009-03-25 00:53:00",740604,8.65,301.4,5.603,1.437,8.74,102.3208,5.222,6.439,25.5,0,109.9,13.45,5.99,263.4
"2009-03-25 00:53:30",740605,9.04,302.4,6.64,1.068,8.96,102.322,5.225,6.438,25.38,0,109.9,13.45,6.00,264.4
"2009-03-25 00:54:00",740606,9.44,299.6,6.126,1.105,8.93,102.3205,5.222,6.456,25.46,0,109.8,13.45,5.99,261.6
"2009-03-25 00:54:30",740607,8.65,296.7,7.155,1.115,8.68,102.3189,5.217,6.407,25.47,0,109.9,13.45,5.99,258.7
"2009-03-25 00:55:00",740608,7.654,294.9,9.64,1.198,7.58,102.3206,5.222,6.402,25.38,0,109.9,13.45,5.99,256.9
"2009-03-25 00:55:30",740609,8.24,292.7,7.808,1.523,7.58,102.3177,5.215,6.36,25.46,0,109.9,13.45,5.98,254.7
"2009-03-25 00:56:00",740610,8.44,298.4,5.483,1.528,7.918,102.3149,5.207,6.396,25.88,0,109.9,13.45,5.98,260.4
"2009-03-25 00:56:30",740611,9.13,302.5,6.39,1.015,8.81,102.3121,5.2,6.415,26.01,0,109.9,13.45,5.97,264.5
"2009-03-25 00:57:00",740612,8.69,303.5,6.079,1.165,8.86,102.309,5.192,6.407,26.11,0,109.9,13.45,5.96,265.5
"2009-03-25 00:57:30",740613,8.02,301.5,6.038,0.989,8.66,102.307,5.187,6.442,26.32,0,109.9,13.45,5.96,263.5
"2009-03-25 00:58:00",740614,8.9,306.4,6.57,1.071,8.7,102.3059,5.184,6.361,26.48,0,109.9,13.44,5.95,268.4
"2009-03-25 00:58:30",740615,8.29,306.6,6.812,1.167,8.34,102.3059,5.184,6.328,26.49,0,109.9,13.44,5.95,268.6
"2009-03-25 00:59:00",740616,8.04,304.1,7.811,0.978,7.908,102.3059,5.184,6.349,26.49,0,109.9,13.44,5.95,266.1
"2009-03-25 00:59:30",740617,8.3,307.7,5.165,1.122,9.02,102.3059,5.184,6.391,26.7,0,109.9,13.44,5.95,269.7
"2009-03-25 01:00:00",740618,8.31,301.1,6.413,1.113,8.7,102.3059,5.184,6.352,26.62,0,109.9,13.44,5.95,263.1
"2009-03-25 01:00:30",740619,7.529,301.6,7.012,1.296,8.23,102.2948,5.156,6.264,26.74,0,109.9,13.44,5.93,263.6
"2009-03-25 01:01:00",740620,8.06,304.3,9.37,1.366,8.32,102.2844,5.129,6.314,26.23,0,109.9,13.44,5.90,266.3
"2009-03-25 01:01:30",740621,8.25,303.4,7.103,0.773,7.635,102.2965,5.16,6.167,25.95,0,109.9,13.45,5.93,265.4
"2009-03-25 01:02:00",740622,9.68,307.3,5.372,1.196,8.99,102.2968,5.161,6.279,26.2,0,109.9,13.45,5.93,269.3
"2009-03-25 01:02:30",740623,9.84,305.2,6.446,1.233,8.76,102.2909,5.146,6.304,26.22,0,109.9,13.45,5.92,267.2
"2009-03-25 01:03:00",740624,9.99,306.7,6.105,1.092,9.5,102.281,5.121,6.294,26.32,0,109.8,13.45,5.89,268.7
"2009-03-25 01:03:30",740625,9.21,308.9,5.586,1.3,8.8,102.2745,5.104,6.283,26.54,0,109.9,13.45,5.87,270.9
"2009-03-25 01:04:00",740626,9.81,310.1,5.114,1.112,8.78,102.272,5.098,6.268,26.46,0,109.9,13.46,5.87,272.1
"2009-03-25 01:04:30",740627,9.28,306.4,7.118,1.144,8.24,102.272,5.098,6.169,26.36,0,109.9,13.46,5.87,268.4
"2009-03-25 01:05:00",740628,8.85,305,6.56,1.178,8.18,102.272,5.098,6.194,26.49,0,109.9,13.46,5.87,267.0
"2009-03-25 01:05:30",740629,8.54,307.6,5.759,1.178,8.84,102.2705,5.094,6.21,26.35,0,109.9,13.46,5.86,269.6
"2009-03-25 01:06:00",740630,9.21,307,5.221,0.867,9.98,102.264,5.077,6.22,26.43,0,109.9,13.46,5.85,269.0
"2009-03-25 01:06:30",740631,9,304.4,6.456,1.264,8.51,102.2575,5.061,6.182,26.48,0,109.9,13.46,5.83,266.4
"2009-03-25 01:07:00",740632,9.32,303.1,5.852,0.97,8.91,102.2462,5.032,6.196,26.53,0,109.9,13.46,5.80,265.1
"2009-03-25 01:07:30",740633,9.73,303,5.735,1.573,8.67,102.238,5.011,6.118,26.5,0,109.9,13.46,5.78,265.0
"2009-03-25 01:08:00",740634,9.43,302.6,6.018,1.103,8.94,102.238,5.011,6.187,26.55,0,109.9,13.46,5.78,264.6
"2009-03-25 01:08:30",740635,9.54,297.2,4.7,1.15,8.94,102.238,5.011,6.155,26.57,0,109.9,13.46,5.78,259.2
"2009-03-25 01:09:00",740636,7.874,282,8.78,1.198,8.55,102.238,5.011,6.225,26.79,0,109.8,13.46,5.78,244.0
"2009-03-25 01:09:30",740637,7.383,298.5,11.02,1.136,8.7,102.238,5.011,6.162,26.78,0,109.8,13.46,5.78,260.5
"2009-03-25 01:10:00",740638,6.603,287.4,9.59,1.125,6.571,102.2375,5.01,6.004,26.66,0,109.8,13.46,5.78,249.4
"2009-03-25 01:10:30",740639,5.61,278.7,7.576,1.055,6.476,102.2344,5.002,6.158,26.89,0,109.8,13.46,5.77,240.7
"2009-03-25 01:11:00",740640,6.349,284,9.83,1.366,8.05,102.2242,4.976,6.1,26.92,0,109.8,13.46,5.75,246.0
"2009-03-25 01:11:30",740641,7.178,294.2,7.998,1.279,8.69,102.218,4.96,6.157,26.95,0,109.8,13.46,5.73,256.2
"2009-03-25 01:12:00",740642,6.639,287.5,9.82,1.429,7.772,102.2072,4.932,6.105,26.96,0,109.8,13.46,5.70,249.5
"2009-03-25 01:12:30",740643,6.23,293.4,10.53,1.705,8.3,102.2041,4.924,6.129,27.02,0,109.8,13.46,5.69,255.4
"2009-03-25 01:13:00",740644,4.467,271.4,11.47,1.563,5.99,102.2041,4.924,5.896,26.85,0,109.8,13.46,5.69,233.4
"2009-03-25 01:13:30",740645,3.112,274.6,10.18,0.949,6.073,102.2024,4.92,6.048,27.09,0,109.8,13.46,5.69,236.6
"2009-03-25 01:14:00",740646,5.399,281.5,6.996,1.05,8.29,102.1908,4.891,5.979,27.06,0,109.8,13.46,5.66,243.5
"2009-03-25 01:14:30",740647,5.418,292.1,16.35,1.229,7.38,102.1784,4.859,5.934,26.98,0,109.9,13.46,5.63,254.1
"2009-03-25 01:15:00",740648,5.183,280.1,11.07,1.525,8.27,102.1711,4.84,5.99,27.06,0,109.8,13.46,5.61,242.1
"2009-03-25 01:15:30",740649,5.019,255.2,13.67,1.72,7.234,102.1702,4.838,6.015,27.16,0,109.8,13.46,5.61,217.2
"2009-03-25 01:16:00",740650,4.252,259.2,17.7,1.181,6.961,102.1702,4.838,5.842,26.98,0,109.8,13.46,5.61,221.2
"2009-03-25 01:16:30",740651,5.041,250.2,13.21,1.264,6.298,102.1702,4.838,6.021,27.12,0,109.8,13.46,5.61,212.2
"2009-03-25 01:17:00",740652,5.042,289.4,19,1.454,8.36,102.1699,4.837,5.929,27.04,0,109.8,13.46,5.61,251.4
"2009-03-25 01:17:30",740653,5.403,261.6,18.63,1.054,7.121,102.1581,4.807,5.886,27.2,0,109.8,13.46,5.58,223.6
"2009-03-25 01:18:00",740654,5.971,272.3,14.95,1.162,8.19,102.1374,4.754,5.923,27.27,0,109.8,13.46,5.52,234.3
"2009-03-25 01:18:30",740655,6.344,273.5,9.7,1.689,7.502,102.1366,4.752,5.898,27.3,0,109.8,13.46,5.52,235.5
"2009-03-25 01:19:00",740656,6.366,252.9,27.66,1.601,7.767,102.1372,4.753,5.794,27.2,0,109.8,13.46,5.52,214.9
"2009-03-25 01:19:30",740657,4.312,220.2,19.9,1.201,6.994,102.127,4.727,5.876,27.94,0,109.8,13.47,5.50,182.2
"2009-03-25 01:20:00",740658,2.875,189.9,6.294,0.628,4.429,102.1177,4.704,5.716,28.05,0,109.8,13.47,5.47,151.9
"2009-03-25 01:20:30",740659,3.884,173.9,5.565,1.33,5.937,102.1095,4.683,5.813,28.23,0,109.8,13.47,5.45,135.9
"2009-03-25 01:21:00",740660,4.472,179.1,7.651,1.275,6.973,102.1044,4.67,5.944,28.51,0,109.8,13.47,5.44,141.1
"2009-03-25 01:21:30",740661,3.901,175,9.8,1.231,5.511,102.0976,4.653,5.716,28.44,0,109.8,13.47,5.42,137.0
"2009-03-25 01:22:00",740662,4.546,181.8,4.805,1.116,5.21,102.0898,4.633,5.679,28.55,0,109.8,13.47,5.40,143.8
"2009-03-25 01:22:30",740663,4.976,181.2,6.645,1.227,6.382,102.0782,4.603,5.878,28.78,0,109.8,13.47,5.37,143.2
"2009-03-25 01:23:00",740664,5.867,183.8,5.962,1.124,7.561,102.0746,4.594,5.841,28.81,0,109.8,13.47,5.36,145.8
"2009-03-25 01:23:30",740665,4.64,169.1,8.05,1.131,4.999,102.0718,4.586,5.668,28.66,0,109.8,13.47,5.35,131.1
"2009-03-25 01:24:00",740666,5.22,177.1,6.535,1.173,6.075,102.0548,4.543,5.816,28.9,0,109.8,13.47,5.31,139.1
"2009-03-25 01:24:30",740667,4.997,170.8,11.66,1.374,5.64,102.0478,4.525,5.697,28.77,0,109.8,13.47,5.29,132.8
"2009-03-25 01:25:00",740668,5.031,154.9,6.355,0.963,4.066,102.0261,4.47,5.566,28.69,0,109.8,13.48,5.24,116.9
"2009-03-25 01:25:30",740669,5.673,166.8,8.64,1.306,6.659,102.0174,4.448,5.778,29.02,0,109.8,13.48,5.22,128.8
"2009-03-25 01:26:00",740670,6.858,169.3,5.094,1.033,7.973,102.0005,4.404,5.808,29.15,0,109.8,13.48,5.17,131.3
"2009-03-25 01:26:30",740671,6.872,167.4,8.25,1.116,7.314,101.9858,4.367,5.745,29.17,0,109.8,13.48,5.13,129.4
"2009-03-25 01:27:00",740672,7.424,159.4,5.909,1.018,7.313,101.9621,4.306,5.688,29.27,0,109.8,13.48,5.07,121.4
"2009-03-25 01:27:30",740673,5.868,147.8,6.547,1.126,4.403,101.9506,4.277,5.483,29.15,0,109.8,13.48,5.04,109.8
"2009-03-25 01:28:00",740674,6.026,149.7,6.37,1.13,5.585,101.9269,4.216,5.496,29.13,0,109.8,13.48,4.98,111.7
"2009-03-25 01:28:30",740675,6.663,157.4,5.638,1.175,7.756,101.9139,4.183,5.58,29.21,0,109.8,13.48,4.95,119.4
"2009-03-25 01:29:00",740676,7.081,163.4,4.521,0.76,8.52,101.8956,4.137,5.571,29.26,0,109.8,13.48,4.90,125.4
"2009-03-25 01:29:30",740677,6.861,152.4,6.112,1.418,6.946,101.886,4.112,5.571,29.54,0,109.8,13.48,4.88,114.4
"2009-03-25 01:30:00",740678,7.023,151.2,7.783,1.204,6.829,101.8602,4.046,5.436,29.92,0,109.8,13.48,4.81,113.2
"2009-03-25 01:30:30",740679,5.977,145.2,8.21,1.374,5.578,101.8323,3.975,5.372,29.96,0,109.8,13.47,4.74,107.2
"2009-03-25 01:31:00",740680,7.497,162.9,5.446,0.984,7.565,101.8249,3.956,5.324,29.98,0,109.8,13.47,4.72,124.9
"2009-03-25 01:31:30",740681,5.503,150.2,11.82,1.477,6.909,101.7992,3.891,5.314,30.11,0,109.8,13.47,4.66,112.2
"2009-03-25 01:32:00",740682,6.692,141.7,7.456,1.32,6.947,101.7955,3.881,5.276,30.21,0,109.8,13.47,4.65,103.7
"2009-03-25 01:32:30",740683,8.8,140.1,6.553,1.451,6.893,101.7684,3.812,5.278,31.11,0,109.8,13.47,4.58,102.1
"2009-03-25 01:33:00",740684,9.04,143.8,6.694,1.384,7.463,101.7546,3.777,5.239,31.63,0,109.8,13.47,4.54,105.8
"2009-03-25 01:33:30",740685,9.36,145.7,6.513,0.967,7.978,101.73,3.714,5.221,31.8,0,109.8,13.47,4.48,107.7
"2009-03-25 01:34:00",740686,7.282,147,9.23,1.222,8.73,101.7026,3.644,5.204,31.78,0,109.8,13.47,4.41,109.0
"2009-03-25 01:34:30",740687,7.949,160.7,11.9,0.926,7.533,101.6799,3.586,5.095,31.28,0,109.8,13.47,4.35,122.7
"2009-03-25 01:35:00",740688,6.885,143.8,11.22,1.343,5.954,101.6621,3.541,4.856,31.31,0,109.8,13.47,4.30,105.8
"2009-03-25 01:35:30",740689,7.088,143.3,6.051,1.183,6.51,101.6554,3.523,4.935,32.3,0,109.8,13.48,4.29,105.3
"2009-03-25 01:36:00",740690,6.83,144.2,6.99,1.192,7.001,101.6293,3.457,4.91,32.81,0,109.8,13.48,4.22,106.2
"2009-03-25 01:36:30",740691,6.272,165.1,5.489,1.124,8.15,101.6245,3.445,4.934,32.88,0,109.8,13.48,4.21,127.1
"2009-03-25 01:37:00",740692,5.979,134.1,7.892,1.24,5.815,101.6019,3.387,4.833,32.82,0,109.8,13.48,4.15,96.1
"2009-03-25 01:37:30",740693,7.105,148.5,5.346,1.023,4.864,101.5869,3.349,4.69,33.02,0,109.8,13.48,4.11,110.5
"2009-03-25 01:38:00",740694,8.85,142.6,6.246,1.234,6.003,101.5621,3.285,4.727,33.65,0,109.8,13.48,4.05,104.6
"2009-03-25 01:38:30",740695,9.23,148.3,4.338,0.913,7.854,101.5522,3.26,4.752,33.92,0,109.8,13.48,4.02,110.3
"2009-03-25 01:39:00",740696,9.52,151.6,5.272,0.753,8.51,101.5296,3.202,4.719,34.09,0,109.8,13.48,3.97,113.6
"2009-03-25 01:39:30",740697,8.35,152.7,4.748,0.737,8.37,101.5231,3.186,4.692,33.75,0,109.8,13.48,3.95,114.7
"2009-03-25 01:40:00",740698,8.36,147.4,6.546,0.75,8.23,101.4962,3.117,4.647,33.46,0,109.8,13.48,3.88,109.4
"2009-03-25 01:40:30",740699,9.52,138.6,4.001,0.727,7.87,101.4925,3.108,4.6,33.74,0,109.8,13.48,3.87,100.6
"2009-03-25 01:41:00",740700,9.31,140.8,2.928,0.648,7.936,101.4798,3.075,4.569,33.79,0,109.8,13.48,3.84,102.8
"2009-03-25 01:41:30",740701,9.77,134.2,4.565,0.981,7.578,101.4603,3.025,4.52,33.79,0,109.8,13.48,3.79,96.2
"2009-03-25 01:42:00",740702,9.77,132.5,3.629,0.678,7.134,101.4558,3.014,4.508,34.94,0,109.8,13.49,3.78,94.5
"2009-03-25 01:42:30",740703,9.61,132.4,3.31,0.648,7.036,101.4323,2.954,4.476,35.28,0,109.7,13.49,3.72,94.4
"2009-03-25 01:43:00",740704,9.78,134.9,3.257,0.669,6.934,101.4224,2.929,4.446,35.41,0,109.8,13.49,3.69,96.9
"2009-03-25 01:43:30",740705,10.23,138.7,3.756,0.693,7.081,101.4007,2.873,4.393,35.6,0,109.7,13.49,3.64,100.7
"2009-03-25 01:44:00",740706,9.92,139.5,3.398,0.61,7.202,101.3902,2.847,4.355,35.62,0,109.8,13.49,3.61,101.5
"2009-03-25 01:44:30",740707,9.66,139.4,3.76,0.633,7.513,101.3656,2.784,4.333,35.64,0,109.7,13.49,3.55,101.4
"2009-03-25 01:45:00",740708,9.6,139.9,3.173,0.676,7.406,101.3568,2.761,4.282,35.6,0,109.7,13.49,3.52,101.9
"2009-03-25 01:45:30",740709,10.16,139,3.961,0.656,7.555,101.3444,2.73,4.254,35.54,0,109.7,13.49,3.49,101.0
"2009-03-25 01:46:00",740710,9.92,136.5,2.702,0.746,7.347,101.3272,2.686,4.207,35.8,0,109.7,13.49,3.45,98.5
"2009-03-25 01:46:30",740711,9.85,136.2,4.127,0.667,7.237,101.3209,2.67,4.185,35.98,0,109.7,13.49,3.43,98.2
"2009-03-25 01:47:00",740712,9.62,140.9,3.384,0.762,7.393,101.2995,2.615,4.132,35.96,0,109.7,13.48,3.38,102.9
"2009-03-25 01:47:30",740713,9.49,136.5,3.85,0.662,7.606,101.2922,2.596,4.113,36.02,0,109.7,13.48,3.36,98.5
"2009-03-25 01:48:00",740714,9.21,139.6,2.89,0.689,7.353,101.2942,2.601,4.067,36.11,0,109.7,13.48,3.36,101.6
"2009-03-25 01:48:30",740715,8.98,143.2,3.3,0.705,7.507,101.2835,2.574,4.049,36.05,0,109.7,13.48,3.34,105.2
"2009-03-25 01:49:00",740716,9.28,138.5,4.091,0.565,7.474,101.2659,2.529,4.012,35.99,0,109.7,13.48,3.29,100.5
"2009-03-25 01:49:30",740717,9.37,141.2,3.962,0.747,7.376,101.2642,2.525,3.989,36.09,0,109.7,13.48,3.29,103.2
"2009-03-25 01:50:00",740718,9.18,142.9,2.712,0.536,7.334,101.266,2.529,3.976,36.06,0,109.6,13.48,3.29,104.9